Location: ??????
(56.0120°N, 39.1740°E)
Time: 09:17:23
(UTC+00:00)

Cosmos 1536 - Pass Details

Date: 14 April 2026
Orbit: 481 x 503 km, 82.5° (Epoch: 10 May)

Event Time Altitude Azimuth Distance (km) Brightness Sun altitude
Rises 23:32:21 0° 349° (N) 2,574 6.9 -19.1°
Reaches altitude 10° 23:34:30 10° 353° (N) 1,684 6.0 -18.9°
Maximum altitude 23:38:09 63° 75° (ENE) 545 2.9 -18.6°
Enters shadow 23:40:03 26° 150° (SSE) 987 3.9 -18.4°
